Location: Castelbiague
(43.0361°N, 0.9246°E)
Time: 08:05:06
(UTC+00:00)

USA 215 - Pass Details

Date: 20 October 2021
Orbit: 1099 x 1109 km, 123.0° (Epoch: 20 November)

Event Time Altitude Azimuth Distance (km) Brightness Sun altitude
Exits shadow 18:31:43 - 44° (NE) 3,023 5.2 -16.5°
Reaches altitude 10° 18:31:53 10° 43° (NE) 2,963 5.1 -16.5°
Maximum altitude 18:37:27 31° 344° (NNW) 1,826 4.6 -17.5°
Drops below altitude 10° 18:43:02 10° 286° (WNW) 2,965 6.7 -18.5°
Sets 18:45:47 0° 276° (W) 3,923 7.8 -19.0°
